Satellite: DTUSAT-2 Catalog number: 40030 Epoch time: 14331.67276833 Element set: 465 Inclination: 097.9651 deg RA of node: 226.4632 deg Eccentricity: 0.0013994 Arg of perigee: 112.5594 deg Mean anomaly: 247.7117 deg Mean motion: 14.85594417 rev/day Decay rate: 4.138e-05 rev/day^2 Epoch rev: 2385 Checksum: 313
Satellite: ANTELSAT Catalog number: 40034 Epoch time: 14331.74169051 Element set: 475 Inclination: 097.9639 deg RA of node: 223.0544 deg Eccentricity: 0.0062611 Arg of perigee: 045.0902 deg Mean anomaly: 315.5379 deg Mean motion: 14.71776138 rev/day Decay rate: 3.456e-05 rev/day^2 Epoch rev: 2365 Checksum: 291
/EX SB KEPS @ AMSAT $ORB14331.W Orbital Elements 14331.WEATHER
HR AMSAT ORBITAL ELEMENTS FOR WEATHER SATELLITES FROM WA5QGD FORT WORTH,TX November 27, 2014 BID: ORB14331.W TO ALL RADIO AMATEURS BT
Satellite: MET-2/21 Catalog number: 22782 Epoch time: 14331.19728516 Element set: 234 Inclination: 082.5510 deg RA of node: 043.9614 deg Eccentricity: 0.0023082 Arg of perigee: 165.0308 deg Mean anomaly: 260.4142 deg Mean motion: 13.83754115 rev/day Decay rate: 2.8e-07 rev/day^2 Epoch rev: 7266 Checksum: 271
Satellite: OKEAN-4 Catalog number: 23317 Epoch time: 14331.55001509 Element set: 719 Inclination: 082.5384 deg RA of node: 274.7193 deg Eccentricity: 0.0018429 Arg of perigee: 279.0168 deg Mean anomaly: 202.9028 deg Mean motion: 14.86006443 rev/day Decay rate: 2.365e-05 rev/day^2 Epoch rev: 8736 Checksum: 302
Satellite: NOAA-14 Catalog number: 23455 Epoch time: 14331.47436634 Element set: 997 Inclination: 098.7693 deg RA of node: 051.9378 deg Eccentricity: 0.0008416 Arg of perigee: 296.1372 deg Mean anomaly: 192.2291 deg Mean motion: 14.14004858 rev/day Decay rate: -7.0e-08 rev/day^2 Epoch rev: 2702 Checksum: 314
Satellite: NOAA-15 Catalog number: 25338 Epoch time: 14331.53138778 Element set: 436 Inclination: 098.7631 deg RA of node: 325.1663 deg Eccentricity: 0.0011145 Arg of perigee: 039.3809 deg Mean anomaly: 069.3689 deg Mean motion: 14.25514755 rev/day Decay rate: 2.23e-06 rev/day^2 Epoch rev: 86011 Checksum: 311
Satellite: RESURS Catalog number: 25394 Epoch time: 14331.88580431 Element set: 817 Inclination: 098.4372 deg RA of node: 289.5509 deg Eccentricity: 0.0002364 Arg of perigee: 123.3794 deg Mean anomaly: 252.0435 deg Mean motion: 14.24419455 rev/day Decay rate: 9.4e-07 rev/day^2 Epoch rev: 85162 Checksum: 308
Satellite: FENGYUN1 Catalog number: 25730 Epoch time: 14331.46013507 Element set: 305 Inclination: 098.9271 deg RA of node: 291.6910 deg Eccentricity: 0.0022466 Arg of perigee: 009.6801 deg Mean anomaly: 138.5637 deg Mean motion: 14.12520150 rev/day Decay rate: 3.420e-05 rev/day^2 Epoch rev: 80056 Checksum: 262
Satellite: OKEAN-0 Catalog number: 25860 Epoch time: 14331.88790388 Element set: 426 Inclination: 098.0665 deg RA of node: 295.0098 deg Eccentricity: 0.0001055 Arg of perigee: 115.8128 deg Mean anomaly: 297.0256 deg Mean motion: 14.75598146 rev/day Decay rate: 1.212e-05 rev/day^2 Epoch rev: 82629 Checksum: 323
Satellite: NOAA-16 Catalog number: 26536 Epoch time: 14331.43727150 Element set: 934 Inclination: 098.9710 deg RA of node: 032.3424 deg Eccentricity: 0.0011462 Arg of perigee: 085.3340 deg Mean anomaly: 274.9141 deg Mean motion: 14.13056535 rev/day Decay rate: 1.28e-06 rev/day^2 Epoch rev: 73117 Checksum: 276
Satellite: NOAA-17 Catalog number: 27453 Epoch time: 14331.46999053 Element set: 824 Inclination: 098.3240 deg RA of node: 322.6645 deg Eccentricity: 0.0012580 Arg of perigee: 059.2727 deg Mean anomaly: 300.9690 deg Mean motion: 14.24821934 rev/day Decay rate: 2.20e-06 rev/day^2 Epoch rev: 64593 Checksum: 308
Satellite: NOAA-18 Catalog number: 28654 Epoch time: 14331.50795133 Element set: 347 Inclination: 099.1667 deg RA of node: 314.4402 deg Eccentricity: 0.0014697 Arg of perigee: 162.8797 deg Mean anomaly: 305.1016 deg Mean motion: 14.12104597 rev/day Decay rate: 2.58e-06 rev/day^2 Epoch rev: 49061 Checksum: 311
Satellite: NOAA-19 Catalog number: 33591 Epoch time: 14331.50140858 Element set: 478 Inclination: 098.9647 deg RA of node: 276.1925 deg Eccentricity: 0.0014379 Arg of perigee: 023.0039 deg Mean anomaly: 085.2261 deg Mean motion: 14.11815469 rev/day Decay rate: 2.88e-06 rev/day^2 Epoch rev: 29903 Checksum: 324
/EX SB KEPS @ AMSAT $ORB14331.M Orbital Elements 14331.MISC
HR AMSAT ORBITAL ELEMENTS FOR MANNED AND MISCELLANEOUS SATELLITES FROM WA5QGD FORT WORTH,TX November 27, 2014 BID: ORB14331.M TO ALL RADIO AMATEURS BT
Satellite: HUBBLE Catalog number: 20580 Epoch time: 14331.64992263 Element set: 165 Inclination: 028.4714 deg RA of node: 042.0471 deg Eccentricity: 0.0002717 Arg of perigee: 228.5861 deg Mean anomaly: 266.8407 deg Mean motion: 15.06267569 rev/day Decay rate: 4.445e-05 rev/day^2 Epoch rev: 14938 Checksum: 303
Satellite: ISS Catalog number: 25544 Epoch time: 14331.62393138 Element set: 471 Inclination: 051.6475 deg RA of node: 009.2796 deg Eccentricity: 0.0007375 Arg of perigee: 073.1803 deg Mean anomaly: 068.6923 deg Mean motion: 15.51538622 rev/day Decay rate: 1.7205e-04 rev/day^2 Epoch rev: 91668 Checksum: 308
Satellite: CO-58 Catalog number: 28895 Epoch time: 14330.82196567 Element set: 930 Inclination: 097.8228 deg RA of node: 164.1921 deg Eccentricity: 0.0016709 Arg of perigee: 213.2945 deg Mean anomaly: 146.7207 deg Mean motion: 14.62248216 rev/day Decay rate: 1.288e-05 rev/day^2 Epoch rev: 48401 Checksum: 329
Satellite: FALCON Catalog number: 30776 Epoch time: 14331.80418927 Element set: 13 Inclination: 035.4274 deg RA of node: 178.9836 deg Eccentricity: 0.0003683 Arg of perigee: 307.0616 deg Mean anomaly: 116.1112 deg Mean motion: 15.19292601 rev/day Decay rate: 1.3835e-04 rev/day^2 Epoch rev: 42560 Checksum: 281
Satellite: MAST Catalog number: 31126 Epoch time: 14331.15636182 Element set: 212 Inclination: 097.9347 deg RA of node: 303.7488 deg Eccentricity: 0.0091189 Arg of perigee: 205.1694 deg Mean anomaly: 292.6590 deg Mean motion: 14.55612676 rev/day Decay rate: 1.134e-05 rev/day^2 Epoch rev: 40409 Checksum: 299
Satellite: CAPE1 Catalog number: 31130 Epoch time: 14330.89428428 Element set: 218 Inclination: 097.9562 deg RA of node: 300.3688 deg Eccentricity: 0.0097335 Arg of perigee: 225.0733 deg Mean anomaly: 134.2539 deg Mean motion: 14.54900067 rev/day Decay rate: 1.675e-05 rev/day^2 Epoch rev: 40346 Checksum: 298
Satellite: COMPASS Catalog number: 32787 Epoch time: 14331.13268505 Element set: 110 Inclination: 097.6808 deg RA of node: 019.9060 deg Eccentricity: 0.0013508 Arg of perigee: 009.0220 deg Mean anomaly: 351.1238 deg Mean motion: 14.89030588 rev/day Decay rate: 6.148e-05 rev/day^2 Epoch rev: 35642 Checksum: 280
Satellite: AAUSAT2 Catalog number: 32788 Epoch time: 14331.12146946 Element set: 97 Inclination: 097.6819 deg RA of node: 021.0915 deg Eccentricity: 0.0012909 Arg of perigee: 006.8975 deg Mean anomaly: 353.2418 deg Mean motion: 14.89868025 rev/day Decay rate: 6.524e-05 rev/day^2 Epoch rev: 35649 Checksum: 334
Satellite: DO-64 Catalog number: 32789 Epoch time: 14331.40053361 Element set: 142 Inclination: 097.7027 deg RA of node: 029.5558 deg Eccentricity: 0.0010926 Arg of perigee: 348.9294 deg Mean anomaly: 070.6426 deg Mean motion: 14.95871320 rev/day Decay rate: 1.3072e-04 rev/day^2 Epoch rev: 35687 Checksum: 318
Satellite: CO-66 Catalog number: 32791 Epoch time: 14331.78360236 Element set: 92 Inclination: 097.6805 deg RA of node: 018.9391 deg Eccentricity: 0.0014292 Arg of perigee: 011.0157 deg Mean anomaly: 349.1370 deg Mean motion: 14.87465045 rev/day Decay rate: 4.060e-05 rev/day^2 Epoch rev: 35636 Checksum: 304
Satellite: RS-30 Catalog number: 32953 Epoch time: 14331.69872865 Element set: 504 Inclination: 082.5043 deg RA of node: 099.5458 deg Eccentricity: 0.0019338 Arg of perigee: 158.5812 deg Mean anomaly: 201.6082 deg Mean motion: 12.43053115 rev/day Decay rate: 1.0e-07 rev/day^2 Epoch rev: 29557 Checksum: 297
Satellite: METEOR-M Catalog number: 35865 Epoch time: 14331.89840818 Element set: 113 Inclination: 098.5302 deg RA of node: 014.1730 deg Eccentricity: 0.0002387 Arg of perigee: 003.1740 deg Mean anomaly: 356.9431 deg Mean motion: 14.21957776 rev/day Decay rate: 2.35e-06 rev/day^2 Epoch rev: 26960 Checksum: 291
Satellite: RS-38 Catalog number: 35869 Epoch time: 14331.68942897 Element set: 17 Inclination: 098.5221 deg RA of node: 013.6951 deg Eccentricity: 0.0004579 Arg of perigee: 350.0587 deg Mean anomaly: 010.0486 deg Mean motion: 14.22248090 rev/day Decay rate: 1.64e-06 rev/day^2 Epoch rev: 26961 Checksum: 316
Satellite: JUGNU Catalog number: 37839 Epoch time: 14330.39998266 Element set: 741 Inclination: 019.9628 deg RA of node: 351.7710 deg Eccentricity: 0.0019008 Arg of perigee: 332.4348 deg Mean anomaly: 148.7611 deg Mean motion: 14.12378974 rev/day Decay rate: 5.59e-06 rev/day^2 Epoch rev: 16151 Checksum: 325
Satellite: SRMSAT Catalog number: 37841 Epoch time: 14331.47841479 Element set: 745 Inclination: 019.9735 deg RA of node: 007.8400 deg Eccentricity: 0.0011714 Arg of perigee: 278.0279 deg Mean anomaly: 236.4399 deg Mean motion: 14.10407699 rev/day Decay rate: 4.80e-06 rev/day^2 Epoch rev: 16144 Checksum: 311
Satellite: RAX-2 Catalog number: 37853 Epoch time: 14331.20449363 Element set: 973 Inclination: 101.7030 deg RA of node: 078.8071 deg Eccentricity: 0.0208754 Arg of perigee: 304.4076 deg Mean anomaly: 114.5911 deg Mean motion: 14.91894257 rev/day Decay rate: 1.2093e-04 rev/day^2 Epoch rev: 16694 Checksum: 304
Satellite: AUBIESAT Catalog number: 37854 Epoch time: 14331.30309778 Element set: 970 Inclination: 101.7068 deg RA of node: 081.4312 deg Eccentricity: 0.0206253 Arg of perigee: 300.3267 deg Mean anomaly: 120.8622 deg Mean motion: 14.93500551 rev/day Decay rate: 1.2111e-04 rev/day^2 Epoch rev: 16703 Checksum: 257
